Estació meteorològica de Calldetenes (Osona, Plana de Vic)

Consulta les dades en temps real de l'estació meteorològica de Calldetenes





Hora UTC 21:00
Temperatura 11.9 ºC
Sòl 15 cm 11.4 ºC
Humitat 94.8 %
Pressió 1012.7 hPa
Pluja 5.6 mm
Velocitat vent 5.1 km/h
Direcció vent S
Radiació solar 0.1 W/m²

Webcam

Dades diàries 2026-05-04



Hora UTC (hivern +1h; estiu +2h)
Temperatura (ºC) Humitat (%) Pressió (hPa) Velocitat vent (km/h) Precipitació (mm) Radiació solar (W/m²)
Hora UTC Aire Sòl 15 cm Humitat Pressió Vel. Dir. Vel. Max Dir. Intent. màx 5 min. Rad. Sol.
00:05 13.0 13.0 93.7 1014.8 4.1 SSW 4.1 SSW 0.0 0.1
00:10 13.0 13.0 94.2 1014.8 3.1 SSW 5.6 SSW 0.0 0.1
00:15 13.0 13.1 94.4 1014.7 2.5 SW 4.9 SSW 0.0 0.1
00:20 13.0 13.1 94.5 1014.7 4.9 SW 7.1 WSW 0.0 0.1
00:25 13.0 13.0 94.7 1014.8 5.4 WSW 7.8 SW 0.0 0.1
00:30 12.9 13.0 95.3 1014.8 4.6 SW 6.4 SW 0.0 0.1
00:35 12.9 13.0 95.4 1014.8 4.8 SW 7.1 SSW 0.0 0.1
00:40 12.8 13.0 95.1 1014.8 4.6 SW 6.7 SW 0.0 0.1
00:45 12.8 13.0 94.9 1014.8 4.4 SW 6.0 SSW 0.0 0.1
00:50 12.8 12.9 94.9 1014.8 4.4 SW 6.0 SW 0.0 0.1
00:55 12.8 12.9 94.7 1014.8 4.5 SW 7.1 SW 0.0 0.1
01:00 12.8 12.9 94.7 1014.8 4.1 SW 6.4 SSW 0.0 0.1
01:05 12.9 12.9 94.9 1014.8 2.7 S 4.9 SSW 0.0 0.1
01:10 12.8 12.9 94.4 1014.8 1.1 ESE 3.2 SSE 0.0 0.1
01:15 12.7 12.8 94.8 1014.5 1.1 E 2.8 NE 0.0 0.1
01:20 12.6 12.6 95.1 1014.5 0.4 E 1.8 SE 0.0 0.1
01:25 12.5 12.5 95.7 1014.5 1.9 SE 3.2 SE 0.0 0.1
01:30 12.5 12.4 96.1 1014.5 1.6 ESE 2.8 SE 0.0 0.1
01:35 12.5 12.3 96.1 1014.4 1.5 ESE 2.8 ESE 0.0 0.1
01:40 12.5 12.3 96.2 1014.4 3.0 ESE 4.6 ESE 0.0 0.1
01:45 12.6 12.3 96.4 1014.4 3.7 ESE 5.3 ESE 0.0 0.1
01:50 12.5 12.3 96.3 1014.4 3.6 SE 5.6 ESE 0.0 0.1
01:55 12.5 12.3 96.7 1014.4 3.1 SE 4.6 SE 0.0 0.1
02:00 12.5 12.3 96.9 1014.4 2.2 SE 4.2 ESE 0.0 0.1
02:05 12.4 12.3 97.2 1014.3 3.7 ESE 4.9 SE 0.0 0.1
02:10 12.3 12.3 97.4 1014.3 2.3 ESE 3.9 ESE 0.0 0.1
02:15 12.3 12.2 97.7 1014.2 2.5 SE 3.9 SE 0.0 0.1
02:20 12.4 12.2 97.7 1014.2 2.0 SSE 4.2 SSE 0.0 0.1
02:25 12.3 12.2 97.3 1014.1 0.5 ESE 2.1 ESE 0.0 0.1
02:30 12.2 12.1 97.5 1014.1 0.0 E 1.1 E 0.0 0.1
02:35 12.1 12.0 97.6 1014.1 0.8 ENE 2.8 ENE 0.0 0.1
02:40 12.0 11.9 97.9 1014.1 3.1 ENE 3.5 ENE 0.0 0.1
02:45 12.1 11.9 98.4 1014.0 3.4 ESE 4.9 SE 0.0 0.1
02:50 12.3 12.0 98.0 1014.0 2.2 ESE 4.2 ESE 0.0 0.1
02:55 12.1 12.1 97.4 1014.0 3.4 SE 4.9 ESE 0.0 0.1
03:00 12.0 12.0 97.7 1014.0 3.1 SE 4.6 SE 0.0 0.1
03:05 12.0 12.0 98.0 1014.0 1.5 SE 3.2 SE 0.0 0.1
03:10 12.0 11.9 98.2 1014.0 0.6 SE 1.8 SE 0.0 0.1
03:15 12.0 11.9 98.4 1014.1 0.0 NNE 0.0 SE 0.0 0.1
03:20 12.1 12.0 98.4 1014.1 1.1 SW 3.5 SSW 0.0 0.1
03:25 12.1 12.0 98.5 1014.1 0.6 SSW 2.5 SW 0.0 0.1
03:30 12.1 12.0 98.3 1014.1 2.9 E 4.9 ENE 0.0 0.1
03:35 12.1 12.0 98.0 1013.9 3.2 E 4.2 ENE 0.0 0.1
03:40 12.1 12.0 97.9 1013.9 1.1 E 3.5 E 0.0 0.1
03:45 12.1 12.0 97.9 1013.8 1.0 ESE 2.8 ENE 0.0 0.1
03:50 12.2 12.0 97.9 1013.8 1.7 SSE 3.2 SSE 0.0 0.1
03:55 12.3 12.1 97.5 1013.8 0.7 SW 2.5 WSW 0.0 0.1
04:00 12.3 12.1 97.6 1013.8 2.4 SW 3.2 WSW 0.0 0.1
04:05 12.4 12.3 97.5 1013.9 2.2 WSW 3.9 W 0.0 0.1
04:10 12.4 12.4 97.2 1013.9 2.7 WNW 4.2 NW 0.0 0.1
04:15 12.5 12.5 96.9 1013.8 3.2 WSW 5.3 WSW 0.0 0.1
04:20 12.5 12.5 96.7 1013.8 0.6 SW 1.8 NW 0.0 0.1
04:25 12.4 12.4 96.5 1013.7 0.6 NE 1.8 ENE 0.0 0.1
04:30 12.4 12.3 96.9 1013.7 2.3 SE 3.9 ESE 0.0 0.1
04:35 12.4 12.2 96.8 1013.7 1.9 SSW 3.2 S 0.0 0.4
04:40 12.4 12.3 96.8 1013.7 2.4 SSW 4.2 SSW 0.0 0.8
04:45 12.4 12.3 96.5 1013.7 0.4 NW 1.8 W 0.0 1.7
04:50 12.3 12.2 96.6 1013.7 1.1 S 3.9 SSW 0.0 2.7
04:55 12.3 12.1 96.5 1013.7 1.3 WSW 3.9 SSE 0.0 3.3
05:00 12.3 12.1 96.8 1013.7 1.0 NW 3.2 NNW 0.0 4.5
05:05 12.3 12.2 97.1 1013.8 1.0 SSW 2.5 SSW 0.0 6.3
05:10 12.4 12.3 97.1 1013.8 0.3 WSW 1.8 WSW 0.0 7.2
05:15 12.4 12.4 97.0 1013.8 1.3 NE 3.2 N 0.0 9.2
05:20 12.3 12.4 97.1 1013.8 1.6 NE 3.2 ENE 0.0 11.8
05:25 12.3 12.3 97.6 1013.7 1.3 ENE 2.5 ENE 0.0 24.3
05:30 12.3 12.3 97.7 1013.7 1.7 E 2.8 E 0.0 46.1
05:35 12.5 12.4 97.8 1013.7 0.7 ESE 3.2 ESE 0.0 70.0
05:40 12.6 12.6 97.8 1013.7 1.5 SSE 3.5 S 0.0 76.6
05:45 12.7 12.9 97.2 1013.7 1.5 S 3.2 S 0.0 63.3
05:50 12.8 13.1 96.8 1013.7 3.0 S 5.6 S 0.0 34.8
05:55 12.8 13.2 96.1 1013.7 3.0 S 5.3 S 0.0 39.1
06:00 12.8 13.2 95.7 1013.7 3.0 SSW 4.6 SSW 0.0 57.8
06:05 12.8 13.2 95.4 1013.7 2.5 S 4.6 SSW 0.0 80.0
06:10 12.9 13.3 95.0 1013.7 2.4 S 3.9 SSE 0.0 90.4
06:15 13.2 13.5 95.0 1013.9 2.3 S 4.2 S 0.0 118.1
06:20 13.3 13.8 93.1 1013.9 2.0 S 3.2 S 0.0 111.9
06:25 13.2 13.9 92.7 1013.9 0.5 SE 3.2 SE 0.0 63.4
06:30 13.3 13.9 92.9 1013.9 1.9 ESE 4.9 E 0.0 81.4
06:35 13.5 13.9 93.4 1013.9 1.7 E 4.6 E 0.0 88.1
06:40 13.5 13.9 92.9 1013.9 1.2 ENE 3.2 E 0.0 86.9
06:45 13.4 13.8 92.5 1013.9 2.5 NE 3.5 NNE 0.0 125.7
06:50 13.4 13.8 92.5 1013.9 1.8 ENE 3.5 NE 0.0 128.5
06:55 13.5 13.8 92.1 1013.8 1.8 SE 3.9 ESE 0.0 119.9
07:00 13.7 13.9 91.5 1013.8 2.9 SE 4.2 ESE 0.0 159.6
07:05 14.0 14.2 90.4 1013.8 2.6 E 4.9 ENE 0.0 206.0
07:10 14.4 14.5 89.6 1013.8 2.9 E 5.3 E 0.0 276.0
07:15 14.5 14.9 87.8 1013.7 2.2 E 5.3 ENE 0.0 251.2
07:20 14.6 15.0 85.3 1013.7 1.2 WNW 2.8 WNW 0.0 432.0
07:25 14.8 15.1 84.2 1013.8 1.0 NE 3.2 SSW 0.0 439.7
07:30 14.8 15.0 83.7 1013.8 3.3 NNE 8.8 N 0.0 420.4
07:35 14.9 14.8 83.7 1013.7 5.4 NNE 8.1 N 0.0 435.8
07:40 14.8 14.6 82.6 1013.7 2.6 NW 7.1 NNW 0.0 435.2
07:45 14.8 14.4 82.4 1013.7 2.2 N 5.3 NNE 0.0 458.1
07:50 14.8 14.3 82.4 1013.7 3.3 NNE 7.4 N 0.0 474.3
07:55 15.0 14.3 83.1 1013.6 4.2 NNE 7.8 N 0.0 479.9
08:00 15.1 14.3 82.6 1013.6 4.2 NNE 6.4 NNE 0.0 495.8
08:05 15.3 14.4 81.9 1013.5 4.7 NNW 9.2 NW 0.0 525.7
08:10 15.4 14.5 80.0 1013.5 3.8 WNW 7.4 NNW 0.0 568.6
08:15 15.6 14.7 79.7 1013.4 4.0 NW 9.5 W 0.0 639.5
08:20 15.9 15.1 79.3 1013.4 4.2 N 7.8 N 0.0 725.6
08:25 16.3 15.8 76.9 1013.2 4.4 N 8.1 NE 0.0 438.0
08:30 16.4 16.4 77.0 1013.2 4.3 NE 9.2 ENE 0.0 330.2
08:35 16.5 16.7 77.2 1013.2 6.5 N 11.3 NNE 0.0 364.6
08:40 16.7 16.9 76.3 1013.2 4.6 NNE 8.1 NE 0.0 384.4
08:45 16.8 17.2 75.9 1013.3 3.1 NW 6.7 NW 0.0 646.3
08:50 17.0 17.5 75.6 1013.3 5.8 NNW 11.3 NNW 0.0 503.0
08:55 17.1 17.8 75.4 1013.2 5.4 NNE 10.2 N 0.0 657.8
09:00 17.1 17.8 74.6 1013.2 4.3 NNW 9.9 NW 0.0 624.4
09:05 17.1 17.6 72.2 1013.0 6.6 W 10.9 NW 0.0 679.3
09:10 17.3 17.6 70.8 1013.0 3.2 S 5.6 SSW 0.0 576.3
09:15 17.6 18.2 69.9 1013.0 2.0 SSE 6.4 NNE 0.0 484.3
09:20 18.1 19.1 70.2 1013.0 4.0 NE 6.7 N 0.0 425.4
09:25 18.4 19.7 67.5 1013.0 2.5 WSW 8.5 WSW 0.0 425.1
09:30 18.6 20.2 66.1 1013.0 4.5 WSW 7.8 SW 0.0 442.5
09:35 18.7 20.7 65.8 1013.0 4.5 SSW 9.5 SSW 0.0 532.8
09:40 18.9 21.1 66.2 1013.0 6.8 SW 12.7 SSW 0.0 758.7
09:45 19.8 21.7 63.0 1013.0 3.6 WSW 12.4 WNW 0.0 672.3
09:50 19.8 22.2 63.7 1013.0 2.6 NW 7.1 W 0.0 646.4
09:55 19.8 22.6 62.8 1012.9 3.4 WSW 8.8 SW 0.0 481.9
10:00 19.8 22.7 63.2 1012.9 4.5 SW 7.4 SW 0.0 475.9
10:05 19.1 22.6 64.4 1012.8 5.5 SSW 8.8 WSW 0.0 509.3
10:10 19.2 22.5 65.6 1012.8 6.1 NW 9.2 WSW 0.0 364.7
10:15 19.3 22.1 65.3 1012.8 2.9 N 8.8 NW 0.0 281.0
10:20 19.6 21.6 64.3 1012.8 4.0 W 6.7 WSW 0.0 232.2
10:25 19.5 21.2 62.2 1012.7 2.0 SE 6.0 WSW 0.0 227.4
10:30 19.4 20.8 64.3 1012.7 2.9 ENE 4.9 ENE 0.0 207.7
10:35 19.1 20.4 65.7 1012.6 4.0 NNE 6.4 NNE 0.0 316.1
10:40 19.0 20.3 67.9 1012.6 5.3 NNE 9.5 N 0.0 677.7
10:45 19.5 20.8 67.3 1012.5 6.5 N 10.6 N 0.0 949.0
10:50 20.3 21.9 64.5 1012.5 4.2 NNW 7.8 N 0.0 906.0
10:55 21.2 23.0 60.2 1012.5 2.5 SSW 6.0 SSW 0.0 1038.0
11:00 22.0 24.3 57.3 1012.5 2.8 SSE 6.7 SSE 0.0 901.0
11:05 22.5 25.4 58.3 1012.5 3.5 SE 9.5 SE 0.0 1050.0
11:10 22.6 26.6 54.9 1012.5 5.3 ESE 9.2 E 0.0 754.5
11:15 21.9 26.7 57.8 1012.3 4.0 NE 7.1 E 0.0 950.0
11:20 22.4 27.0 58.3 1012.3 6.2 NNW 13.4 NW 0.0 540.5
11:25 21.5 26.6 59.7 1012.1 5.7 NNW 12.7 NW 0.0 420.8
11:30 21.2 25.4 61.0 1012.1 5.9 NNE 12.7 N 0.0 642.3
11:35 21.4 25.0 60.7 1011.9 4.6 NNW 9.9 NNW 0.0 893.0
11:40 21.8 26.0 59.8 1011.9 6.8 N 11.3 N 0.0 655.1
11:45 21.7 25.9 61.2 1011.8 7.1 NNE 13.1 NNE 0.0 427.1
11:50 21.1 24.4 60.2 1011.8 6.2 NE 12.4 NE 0.0 322.5
11:55 20.9 23.0 61.0 1011.6 4.9 ENE 9.5 E 0.0 308.8
12:00 21.0 22.4 57.4 1011.6 3.3 SSE 6.0 E 0.0 318.8
12:05 21.0 22.5 57.5 1011.6 1.8 WSW 4.2 W 0.0 357.4
12:10 21.5 23.0 56.3 1011.6 8.0 SSW 21.5 S 0.0 418.7
12:15 21.1 23.4 59.7 1011.6 16.4 SSW 32.1 SSW 0.0 303.2
12:20 20.8 23.0 61.1 1011.6 18.5 SSW 28.9 SW 0.0 293.5
12:25 20.4 22.5 61.5 1011.5 18.7 S 28.6 S 0.0 222.2
12:30 20.0 21.8 62.2 1011.5 17.0 S 27.5 SSW 0.0 181.1
12:35 19.9 21.3 63.3 1011.5 14.4 SSW 21.9 S 0.0 139.4
12:40 19.9 20.9 63.6 1011.5 14.8 S 21.9 S 0.0 157.2
12:45 19.6 20.6 65.0 1011.4 16.1 S 23.6 S 0.0 186.7
12:50 19.3 20.3 67.2 1011.4 17.2 SSW 27.9 SSW 0.0 174.0
12:55 19.1 19.9 70.2 1011.4 8.6 SSW 14.8 SW 0.0 143.8
13:00 18.9 19.4 70.3 1011.4 8.8 SW 15.9 SW 0.0 133.4
13:05 18.8 19.1 69.1 1011.3 10.3 SSW 15.5 SSW 0.0 109.3
13:10 18.8 18.9 68.2 1011.3 9.7 SSW 18.7 SW 0.0 80.1
13:15 18.6 18.8 68.7 1011.5 10.4 SW 15.9 SSW 0.0 64.4
13:20 18.5 18.6 71.4 1011.5 8.7 SW 13.4 WSW 0.0 64.2
13:25 18.4 18.5 74.1 1011.6 7.0 SW 14.1 SW 0.0 78.4
13:30 18.3 18.2 76.1 1011.6 9.3 SW 16.9 WSW 0.0 140.9
13:35 18.3 18.1 76.7 1011.6 11.2 SW 17.6 SSW 0.0 164.0
13:40 18.3 18.1 75.4 1011.6 12.4 SW 21.2 SSW 0.0 189.2
13:45 18.1 18.2 74.9 1011.6 14.7 SSW 22.2 S 0.0 124.5
13:50 17.8 18.2 75.3 1011.6 16.3 SSW 26.5 SSW 0.0 70.1
13:55 17.6 18.0 76.6 1011.7 12.2 SSW 20.5 SSW 0.0 50.4
14:00 17.4 17.8 77.7 1011.7 11.7 SW 22.9 SSW 0.0 56.5
14:05 17.2 17.6 78.7 1011.8 12.7 SW 24.3 SW 0.0 49.4
14:10 16.9 17.3 81.8 1011.8 9.6 SW 16.9 SSW 0.0 71.3
14:15 16.7 16.8 83.5 1011.7 12.8 SW 22.6 SSW 0.0 55.8
14:20 16.5 16.4 85.1 1011.7 12.1 SW 23.3 SW 0.1 34.6
14:25 16.1 16.0 90.2 1011.9 15.3 SSW 30.3 S 0.5 30.9
14:30 15.4 15.6 93.6 1011.9 20.6 SSW 32.8 S 0.8 43.8
14:35 14.5 15.2 93.3 1012.1 17.0 SSW 30.0 SW 0.5 67.1
14:40 13.9 14.7 93.9 1012.1 14.1 SSW 24.0 SSW 0.2 69.9
14:45 13.9 14.3 94.5 1012.3 10.6 SSW 18.0 SSW 0.1 77.5
14:50 14.1 14.2 96.0 1012.3 13.3 SSW 22.9 S 0.1 100.6
14:55 14.3 14.3 95.8 1012.2 14.1 S 26.5 S 0.2 149.3
15:00 14.0 14.4 93.4 1012.2 15.6 SSW 25.8 SSW 0.1 156.7
15:05 13.9 14.3 94.0 1012.2 10.8 S 19.4 S 0.2 131.6
15:10 13.9 14.3 94.6 1012.2 8.0 S 14.8 S 0.0 126.3
15:15 14.0 14.3 94.1 1011.9 7.1 SSW 10.9 SSW 0.0 150.0
15:20 14.1 14.3 93.8 1011.9 8.2 SSW 15.9 SSW 0.1 164.8
15:25 14.2 14.4 93.9 1011.9 4.7 S 9.2 S 0.0 158.0
15:30 14.3 14.6 93.0 1011.9 5.4 SSE 9.5 SSE 0.0 131.4
15:35 14.6 14.7 93.4 1011.9 3.5 S 7.4 S 0.0 103.1
15:40 14.6 14.8 90.0 1011.9 7.0 SSW 12.0 S 0.0 95.9
15:45 14.9 14.8 90.4 1011.8 5.0 SSW 9.2 SSW 0.0 117.7
15:50 15.0 15.0 90.1 1011.8 5.1 S 9.9 SSW 0.0 144.0
15:55 15.2 15.3 89.4 1011.8 3.3 S 7.4 S 0.0 267.1
16:00 15.6 15.7 88.9 1011.8 2.4 S 6.0 S 0.0 289.5
16:05 15.8 16.0 89.6 1011.7 1.6 SSE 4.9 SSW 0.0 203.1
16:10 15.8 16.3 87.1 1011.7 3.6 SSW 7.4 S 0.0 168.6
16:15 16.0 16.5 87.9 1011.7 3.9 SW 8.8 SSW 0.0 162.0
16:20 15.9 16.6 88.2 1011.7 6.3 S 11.6 S 0.0 167.8
16:25 15.9 16.6 88.1 1011.5 5.9 S 9.9 S 0.0 183.8
16:30 16.0 16.6 86.8 1011.5 5.5 SSW 9.5 SSW 0.0 210.8
16:35 16.0 16.7 86.7 1011.5 4.2 SSW 9.5 SSW 0.0 221.3
16:40 16.2 16.8 86.0 1011.5 7.2 SSW 9.5 S 0.0 197.6
16:45 16.1 16.8 86.3 1011.6 5.7 SW 9.9 SSW 0.0 207.7
16:50 16.1 16.7 85.8 1011.6 7.2 SSW 10.2 SSW 0.0 177.6
16:55 16.1 16.6 85.7 1011.5 5.3 SW 8.8 SSW 0.0 172.4
17:00 16.3 16.5 85.0 1011.5 5.4 WSW 9.2 WSW 0.0 145.4
17:05 16.2 16.4 83.3 1011.4 5.0 WSW 8.1 W 0.0 136.6
17:10 16.2 16.1 83.3 1011.4 4.8 W 8.8 WSW 0.0 95.2
17:15 16.2 15.9 84.5 1011.2 3.2 WSW 5.3 SW 0.0 57.3
17:20 16.1 15.7 85.2 1011.2 4.3 SW 6.4 SW 0.0 40.0
17:25 15.9 15.6 86.3 1011.3 4.8 SW 6.7 WSW 0.0 30.4
17:30 15.8 15.6 87.1 1011.3 4.9 SSW 7.4 SW 0.0 44.5
17:35 15.8 15.6 88.0 1011.2 3.3 SSW 6.7 SSW 0.0 41.5
17:40 15.8 15.7 87.7 1011.2 4.7 SSW 7.1 SSW 0.0 28.5
17:45 15.7 15.7 87.9 1011.3 1.9 SW 6.0 S 0.0 31.5
17:50 15.8 15.7 87.7 1011.3 2.2 S 5.3 S 0.0 42.7
17:55 15.8 15.6 87.2 1011.0 2.0 SW 3.5 W 0.0 49.1
18:00 15.8 15.6 87.7 1011.0 2.8 SW 5.3 SW 0.0 41.3
18:05 15.8 15.6 88.1 1011.0 4.4 SW 6.4 SSW 0.0 30.0
18:10 15.7 15.6 88.2 1011.0 2.7 WSW 4.9 W 0.0 17.4
18:15 15.6 15.5 88.0 1011.0 3.6 WSW 6.0 WSW 0.0 15.0
18:20 15.6 15.4 88.4 1011.0 0.5 WSW 3.2 W 0.0 17.3
18:25 15.6 15.4 88.3 1011.0 1.6 SW 4.2 SSW 0.0 12.8
18:30 15.5 15.3 88.5 1011.0 3.2 SSW 4.9 SSW 0.0 9.3
18:35 15.4 15.3 89.0 1011.0 1.4 SW 4.9 SW 0.0 7.0
18:40 15.3 15.1 88.9 1011.0 3.1 WSW 5.6 WSW 0.0 5.7
18:45 15.2 14.9 89.8 1011.2 2.2 WNW 4.9 NW 0.0 3.6
18:50 15.1 14.7 91.2 1011.2 3.6 WNW 7.1 NW 0.0 1.6
18:55 15.1 14.7 91.3 1011.5 4.6 SW 7.4 SW 0.0 0.8
19:00 15.2 14.8 90.4 1011.5 5.9 WSW 9.2 W 0.0 0.5
19:05 15.2 14.9 91.1 1011.7 3.6 WSW 9.5 WSW 0.0 0.3
19:10 15.2 14.9 91.0 1011.7 4.9 NW 7.8 NW 0.0 0.2
19:15 15.0 14.9 91.5 1011.7 2.1 NW 6.0 NW 0.0 0.2
19:20 14.9 14.8 91.5 1011.7 1.7 WNW 6.0 WNW 0.0 0.1
19:25 14.9 14.7 91.2 1011.7 2.9 WNW 4.9 SSW 0.0 0.1
19:30 14.8 14.7 91.2 1011.7 1.2 NNW 4.2 NNW 0.0 0.1
19:35 14.8 14.6 91.4 1011.9 2.2 SSW 3.5 S 0.0 0.1
19:40 14.9 14.6 91.6 1011.9 1.7 SW 4.6 WSW 0.0 0.1
19:45 14.8 14.6 91.4 1011.8 3.2 WSW 5.3 W 0.0 0.1
19:50 14.7 14.6 92.0 1011.8 2.4 WSW 5.3 WSW 0.0 0.1
19:55 14.7 14.6 92.6 1011.9 2.6 WSW 5.3 WSW 0.0 0.1
20:00 14.7 14.5 92.3 1011.9 3.6 WSW 6.7 WSW 0.0 0.1
20:05 14.7 14.5 92.6 1011.9 3.5 WSW 6.7 WSW 0.0 0.1
20:10 14.7 14.5 93.7 1011.9 5.9 WSW 8.8 WSW 0.2 0.2
20:15 14.5 14.4 95.4 1012.3 15.2 SW 34.6 W 1.7 0.1
20:20 13.6 14.0 94.1 1012.3 17.6 W 33.2 WNW 0.5 0.1
20:25 12.6 13.2 91.1 1013.0 14.7 W 33.9 WNW 0.1 0.1
20:30 12.1 12.5 92.5 1013.0 8.6 WSW 20.8 W 0.1 0.1
20:35 12.0 12.1 93.4 1013.0 10.9 SSW 18.4 SW 0.1 0.1
20:40 11.7 11.9 92.8 1013.0 7.5 SSW 14.1 S 0.0 0.1
20:45 11.6 11.7 93.3 1012.9 4.6 SE 8.8 SE 0.0 0.1
20:50 11.6 11.5 93.8 1012.9 5.1 SE 8.8 SE 0.0 0.1
20:55 11.8 11.4 93.1 1012.7 5.5 SSE 9.5 SSE 0.0 0.1
21:00 11.9 11.4 94.8 1012.7 5.1 S 8.1 SSE 0.0 0.1
Màxima 22.6 27.0 98.5 1014.8 20.6 SSW 34.6 W 1.7 1050.0
Mínima 11.6 11.4 54.9 1011.0
Total 5.6